Air temperature -6.0° C
Visibility: greater than 5.4 NM
Dewpoint -7.0° C

Last reported at 2014-Apr-24 00:20 UTC.
Time now 2014-Apr-24 02:21 UTC

Location: N 65°48' E 015°05'.
View on Google Maps.

See reports from other nearby stations

Tides Stations Pressure Air Temp Water Temp Dewpoint Dewpoint depression Visibility Wind Speed Wind Dir Waves Ship positions

  
sailing weather and tide predictions

HEMAVAN weather

date/time (UTC)wind fromknots sea level pressurealtimeterstation pressurevisibilityair tempwater tempwave heightnotes
2014-Apr-24 01:20 5.4-7.0
2014-Apr-24 00:50 5.4-6.0
2014-Apr-24 00:20 5.4-6.0
2014-Apr-23 23:50 5.4-6.0
2014-Apr-23 23:20 5.4-6.0
2014-Apr-23 22:50 5.4-5.0
2014-Apr-23 22:20 5.4-5.0
2014-Apr-23 21:50 5.4-5.0
2014-Apr-23 21:20 5.4-3.0
2014-Apr-23 20:50 5.4-3.0
2014-Apr-23 20:20 5.4-2.0
2014-Apr-23 19:50 5.4-1.0
2014-Apr-23 19:20 280 3 5.4-0.0
2014-Apr-23 18:50 300 2 5.4 2.0
2014-Apr-23 18:20 5.4 2.0
2014-Apr-23 17:50 5.4 4.0
2014-Apr-23 17:20 180 4 5.4 4.0
2014-Apr-23 16:50 180 4 5.4 4.0
2014-Apr-23 16:20 170 4 5.4 4.0
2014-Apr-23 15:50 180 5 5.4 4.0
2014-Apr-23 15:20 170 4 5.4 4.0
2014-Apr-23 14:50 160 4 5.4 4.0
2014-Apr-23 14:20 130 3 5.4 4.0
2014-Apr-23 13:50 5.4 4.0
2014-Apr-23 13:20 5.4 3.0
2014-Apr-23 12:50 5.4 2.0
2014-Apr-23 12:20 150 3 5.4 2.0
2014-Apr-23 11:50 170 5 5.4 2.0
2014-Apr-23 11:20 180 3 5.4 2.0
2014-Apr-23 10:50 5.4 1.0
2014-Apr-23 10:20 5.4 1.0
2014-Apr-23 09:50 340 4 5.4-0.0
2014-Apr-23 09:20 5.4 1.0
2014-Apr-23 08:50 5.4-0.0
2014-Apr-23 08:20 5.4-0.0
2014-Apr-23 07:50 150 1 5.4-0.0
2014-Apr-23 07:20 5.4-0.0
2014-Apr-23 06:50 5.4-1.0
2014-Apr-23 06:20 110 3 5.4-2.0
2014-Apr-23 05:50 120 3 5.4-2.0
2014-Apr-23 05:20 5.4-5.0
2014-Apr-23 04:50 140 3 5.4-5.0
2014-Apr-23 04:20 5.4-6.0
2014-Apr-23 03:50 5.4-6.0
2014-Apr-23 03:20 5.4-6.0
2014-Apr-23 02:50 5.4-5.0
2014-Apr-23 02:20 5.4-4.0
2014-Apr-23 01:50 5.4-5.0
2014-Apr-23 01:20 290 3 5.4-3.0
2014-Apr-23 00:50 320 4 5.4-3.0
2014-Apr-23 00:20 340 5 5.4-3.0
2014-Apr-22 23:50 330 5 5.4-2.0
2014-Apr-22 23:20 300 7 5.4-2.0
2014-Apr-22 22:50 320 5 5.4-2.0
2014-Apr-22 22:20 320 5 5.4-2.0
2014-Apr-22 21:50 330 4 5.4-2.0
2014-Apr-22 21:20 5.4-2.0
2014-Apr-22 20:50 170 3 5.4-2.0
2014-Apr-22 20:20 340 7 5.4-2.0
2014-Apr-22 19:50 330 6 5.4-2.0
2014-Apr-22 19:20 350 9 5.4-2.0
2014-Apr-22 18:50 340 16 5.4-2.0
2014-Apr-22 18:20 340 18 5.4-1.0
2014-Apr-22 17:50 340 14 5.4-1.0
2014-Apr-22 17:20 340 16 5.4-0.0
2014-Apr-22 16:50 320 14 5.4-0.0
2014-Apr-22 16:20 320 14 5.4-0.0
2014-Apr-22 15:50 330 16 5.4-0.0
2014-Apr-22 15:20 330 16 5.4 1.0
2014-Apr-22 14:50 320 14 5.4 1.0
2014-Apr-22 14:20 310 14 5.4 1.0
2014-Apr-22 13:50 320 12 5.4 1.0
2014-Apr-22 13:20 330 13 5.4 1.0
2014-Apr-22 12:50 330 12 5.4 1.0
2014-Apr-22 12:20 320 14 5.4 1.0
2014-Apr-22 11:50 310 16 5.4 1.0
2014-Apr-22 11:20 320 14 5.4 1.0
2014-Apr-22 10:50 330 15 5.4-0.0
2014-Apr-22 10:20 330 16 5.4 1.0
2014-Apr-22 09:50 320 16 5.4 1.0
2014-Apr-22 09:20 330 13 5.4 1.0
2014-Apr-22 08:50 350 12 5.4 1.0
2014-Apr-22 08:20 340 12 5.4 1.0
2014-Apr-22 07:50 330 10 gusting 22 5.4 1.0
2014-Apr-22 07:20 310 19 5.4 1.0
2014-Apr-22 06:50 340 11 5.4 1.0
2014-Apr-22 06:20 330 12 2.5-0.0 Snow grains.
2014-Apr-22 05:50 290 15 5.4-0.0
2014-Apr-22 05:20 290 14 5.4-0.0
2014-Apr-22 04:50 330 13 5.4 1.0
2014-Apr-22 04:20 330 14 5.4 1.0
2014-Apr-22 03:50 310 14 5.4 1.0
2014-Apr-22 03:20 330 17 5.4-0.0 Precipitation.
2014-Apr-22 02:50 340 13 5.4 1.0 Precipitation.
2014-Apr-22 02:20 290 12 5.4 1.0